Time,TemperatureF,DewpointF,PressureIn,WindDirection,WindDirectionDegrees,WindSpeedMPH,WindSpeedGustMPH,Humidity,HourlyPrecipIn,Conditions,Clouds,dailyrainin,SoftwareType,DateUTC
2014-10-01 00:01:00,58.6,58.0,29.96,ENE,67,0.0,0.0,96,0.00,,,0.01,weatherlink.com 1.10,2014-10-01 04:01:00,
2014-10-01 00:16:00,59.4,59.0,29.96,SE,144,0.0,4.0,97,0.00,,,0.01,weatherlink.com 1.10,2014-10-01 04:16:00,
2014-10-01 00:31:00,58.4,57.0,29.96,SW,219,0.0,2.0,95,0.00,,,0.01,weatherlink.com 1.10,2014-10-01 04:31:00,
2014-10-01 00:46:00,57.8,57.0,29.96,WNW,290,0.0,0.0,96,0.00,,,0.01,weatherlink.com 1.10,2014-10-01 04:46:00,
2014-10-01 01:01:00,57.6,57.0,29.96,SW,229,0.0,0.0,96,0.00,,,0.01,weatherlink.com 1.10,2014-10-01 05:01:00,
2014-10-01 01:16:00,57.3,56.0,29.96,SW,229,0.0,0.0,96,0.00,,,0.00,weatherlink.com 1.10,2014-10-01 05:16:00,
2014-10-01 01:31:00,57.3,57.0,29.96,SW,229,0.0,0.0,97,0.00,,,0.00,weatherlink.com 1.10,2014-10-01 05:31:00,
2014-10-01 01:46:00,57.4,57.0,29.96,SW,229,0.0,0.0,97,0.00,,,0.00,weatherlink.com 1.10,2014-10-01 05:46:00,
2014-10-01 02:01:00,57.2,56.0,29.97,SW,229,0.0,0.0,97,0.00,,,0.00,weatherlink.com 1.10,2014-10-01 06:01:00,
2014-10-01 02:17:00,57.1,56.0,29.97,SW,229,0.0,0.0,97,0.00,,,0.00,weatherlink.com 1.10,2014-10-01 06:17:00,
2014-10-01 02:32:00,57.2,57.0,29.97,SW,229,0.0,0.0,98,0.00,,,0.00,weatherlink.com 1.10,2014-10-01 06:32:00,
2014-10-01 02:47:00,57.2,57.0,29.97,SW,229,0.0,0.0,98,0.00,,,0.00,weatherlink.com 1.10,2014-10-01 06:47:00,
2014-10-01 03:17:00,57.4,57.0,29.97,SW,229,0.0,0.0,98,0.00,,,0.00,weatherlink.com 1.10,2014-10-01 07:17:00,
2014-10-01 03:32:00,56.9,56.0,29.97,SW,229,0.0,0.0,97,0.00,,,0.00,weatherlink.com 1.10,2014-10-01 07:32:00,
2014-10-01 03:47:00,56.5,56.0,29.98,West,280,0.0,0.0,98,0.00,,,0.00,weatherlink.com 1.10,2014-10-01 07:47:00,
2014-10-01 04:17:00,57.2,57.0,29.98,West,280,0.0,0.0,98,0.00,,,0.00,weatherlink.com 1.10,2014-10-01 08:17:00,
2014-10-01 04:32:00,57.3,57.0,29.98,ESE,113,0.0,0.0,99,0.00,,,0.00,weatherlink.com 1.10,2014-10-01 08:32:00,
2014-10-01 04:47:00,57.8,58.0,29.98,ESE,113,0.0,0.0,99,0.00,,,0.00,weatherlink.com 1.10,2014-10-01 08:47:00,
2014-10-01 05:02:00,58.8,59.0,29.98,South,178,0.0,2.0,99,0.00,,,0.00,weatherlink.com 1.10,2014-10-01 09:02:00,
2014-10-01 05:17:00,59.0,59.0,29.98,South,169,0.0,0.0,99,0.00,,,0.00,weatherlink.com 1.10,2014-10-01 09:17:00,
2014-10-01 05:32:00,58.7,58.0,29.98,SSE,152,0.0,0.0,98,0.00,,,0.00,weatherlink.com 1.10,2014-10-01 09:32:00,
2014-10-01 05:47:00,58.3,58.0,29.98,SSE,152,0.0,0.0,98,0.00,,,0.00,weatherlink.com 1.10,2014-10-01 09:47:00,
2014-10-01 06:02:00,58.0,58.0,29.98,SSE,151,0.0,0.0,98,0.00,,,0.00,weatherlink.com 1.10,2014-10-01 10:02:00,
2014-10-01 06:17:00,57.5,57.0,29.98,SE,131,0.0,0.0,98,0.00,,,0.00,weatherlink.com 1.10,2014-10-01 10:17:00,
2014-10-01 06:32:00,57.2,57.0,29.98,SE,127,0.0,0.0,98,0.01,,,0.01,weatherlink.com 1.10,2014-10-01 10:32:00,
2014-10-01 06:47:00,56.6,56.0,29.99,NE,34,2.0,4.0,98,0.01,,,0.01,weatherlink.com 1.10,2014-10-01 10:47:00,
2014-10-01 07:02:00,56.7,56.0,29.99,NE,56,1.0,4.0,98,0.01,,,0.01,weatherlink.com 1.10,2014-10-01 11:02:00,
2014-10-01 07:17:00,56.9,57.0,30.00,NE,44,0.0,2.0,99,0.01,,,0.01,weatherlink.com 1.10,2014-10-01 11:17:00,
2014-10-01 07:32:00,57.2,57.0,30.01,NNE,29,0.0,3.0,99,0.00,,,0.01,weatherlink.com 1.10,2014-10-01 11:32:00,
2014-10-01 07:47:00,57.8,58.0,30.01,ENE,73,0.0,3.0,99,0.00,,,0.01,weatherlink.com 1.10,2014-10-01 11:47:00,
2014-10-01 08:02:00,58.5,58.0,30.01,ESE,123,0.0,1.0,99,0.00,,,0.01,weatherlink.com 1.10,2014-10-01 12:02:00,
2014-10-01 08:17:00,58.8,59.0,30.02,ESE,123,0.0,0.0,99,0.00,,,0.01,weatherlink.com 1.10,2014-10-01 12:17:00,
2014-10-01 08:32:00,58.7,59.0,30.02,ESE,106,0.0,0.0,99,0.00,,,0.01,weatherlink.com 1.10,2014-10-01 12:32:00,
2014-10-01 08:47:00,59.3,59.0,30.03,East,99,0.0,1.0,99,0.00,,,0.01,weatherlink.com 1.10,2014-10-01 12:47:00,
2014-10-01 09:02:00,59.4,59.0,30.04,ENE,77,4.0,5.0,99,0.00,,,0.01,weatherlink.com 1.10,2014-10-01 13:02:00,
2014-10-01 09:17:00,59.3,59.0,30.04,East,84,0.0,4.0,99,0.00,,,0.01,weatherlink.com 1.10,2014-10-01 13:17:00,
2014-10-01 09:32:00,60.0,60.0,30.04,SE,144,0.0,1.0,99,0.00,,,0.01,weatherlink.com 1.10,2014-10-01 13:32:00,
2014-10-01 09:47:00,60.8,61.0,30.04,SSE,147,0.0,1.0,99,0.00,,,0.01,weatherlink.com 1.10,2014-10-01 13:47:00,
2014-10-01 10:02:00,61.2,61.0,30.04,SW,224,1.0,4.0,98,0.00,,,0.01,weatherlink.com 1.10,2014-10-01 14:02:00,
2014-10-01 10:17:00,61.8,60.0,30.04,SW,220,1.0,4.0,94,0.00,,,0.01,weatherlink.com 1.10,2014-10-01 14:17:00,
2014-10-01 10:32:00,62.4,60.0,30.04,SW,219,1.0,4.0,92,0.00,,,0.01,weatherlink.com 1.10,2014-10-01 14:32:00,
2014-10-01 10:47:00,62.7,60.0,30.05,SW,219,0.0,1.0,91,0.00,,,0.01,weatherlink.com 1.10,2014-10-01 14:47:00,
2014-10-01 11:03:00,63.2,60.0,30.05,NNE,28,1.0,3.0,89,0.00,,,0.01,weatherlink.com 1.10,2014-10-01 15:03:00,
2014-10-01 11:18:00,63.6,60.0,30.05,East,98,0.0,5.0,89,0.00,,,0.01,weatherlink.com 1.10,2014-10-01 15:18:00,
2014-10-01 11:33:00,65.4,61.0,30.04,East,99,0.0,5.0,84,0.00,,,0.01,weatherlink.com 1.10,2014-10-01 15:33:00,
2014-10-01 11:48:00,65.1,60.0,30.04,ENE,70,1.0,5.0,83,0.00,,,0.01,weatherlink.com 1.10,2014-10-01 15:48:00,
2014-10-01 12:03:00,65.6,60.0,30.05,SE,132,0.0,4.0,83,0.00,,,0.01,weatherlink.com 1.10,2014-10-01 16:03:00,
2014-10-01 12:18:00,65.8,60.0,30.04,SW,225,1.0,3.0,82,0.00,,,0.01,weatherlink.com 1.10,2014-10-01 16:18:00,
2014-10-01 12:33:00,66.3,61.0,30.04,SSE,167,0.0,3.0,83,0.00,,,0.01,weatherlink.com 1.10,2014-10-01 16:33:00,
2014-10-01 12:48:00,67.5,60.0,30.04,SSW,209,2.0,5.0,78,0.00,,,0.01,weatherlink.com 1.10,2014-10-01 16:48:00,
2014-10-01 13:18:00,68.0,60.0,30.02,NNE,15,3.0,4.0,76,0.00,,,0.01,weatherlink.com 1.10,2014-10-01 17:18:00,
2014-10-01 13:33:00,67.8,60.0,30.02,ENE,69,2.0,4.0,77,0.00,,,0.01,weatherlink.com 1.10,2014-10-01 17:33:00,
2014-10-01 13:48:00,67.5,61.0,30.02,ENE,72,1.0,5.0,79,0.00,,,0.01,weatherlink.com 1.10,2014-10-01 17:48:00,
2014-10-01 14:03:00,66.7,61.0,30.02,ENE,60,0.0,2.0,82,0.00,,,0.01,weatherlink.com 1.10,2014-10-01 18:03:00,
2014-10-01 14:18:00,67.7,61.0,30.01,East,101,0.0,3.0,80,0.00,,,0.01,weatherlink.com 1.10,2014-10-01 18:18:00,
2014-10-01 14:33:00,68.9,61.0,30.01,East,98,0.0,2.0,75,0.00,,,0.01,weatherlink.com 1.10,2014-10-01 18:33:00,
2014-10-01 14:48:00,71.6,60.0,30.01,ENE,69,1.0,5.0,68,0.00,,,0.01,weatherlink.com 1.10,2014-10-01 18:48:00,
2014-10-01 15:03:00,71.1,60.0,30.01,ENE,77,3.0,10.0,67,0.00,,,0.01,weatherlink.com 1.10,2014-10-01 19:03:00,
2014-10-01 15:18:00,69.5,60.0,30.00,ESE,107,1.0,6.0,72,0.00,,,0.01,weatherlink.com 1.10,2014-10-01 19:18:00,
2014-10-01 15:33:00,71.2,60.0,30.00,SSE,159,1.0,8.0,67,0.00,,,0.01,weatherlink.com 1.10,2014-10-01 19:33:00,
2014-10-01 15:48:00,70.6,60.0,30.00,SE,134,1.0,8.0,69,0.00,,,0.01,weatherlink.com 1.10,2014-10-01 19:48:00,
2014-10-01 16:06:00,71.5,59.0,30.01,East,88,1.0,7.0,64,0.00,,,0.01,weatherlink.com 1.10,2014-10-01 20:06:00,
2014-10-01 16:22:00,69.0,59.0,30.01,West,277,1.0,9.0,70,0.00,,,0.01,weatherlink.com 1.10,2014-10-01 20:22:00,
2014-10-01 16:33:00,68.8,59.0,30.01,SE,134,4.0,8.0,70,0.00,,,0.01,weatherlink.com 1.10,2014-10-01 20:33:00,
2014-10-01 16:48:00,70.3,58.0,30.01,ENE,76,3.0,6.0,66,0.00,,,0.01,weatherlink.com 1.10,2014-10-01 20:48:00,
2014-10-01 17:03:00,69.8,59.0,30.01,ENE,67,2.0,7.0,68,0.00,,,0.01,weatherlink.com 1.10,2014-10-01 21:03:00,
2014-10-01 17:20:00,69.2,59.0,30.01,ENE,69,3.0,8.0,69,0.00,,,0.01,weatherlink.com 1.10,2014-10-01 21:20:00,
2014-10-01 17:36:00,68.3,58.0,30.02,ENE,64,0.0,5.0,70,0.00,,,0.01,weatherlink.com 1.10,2014-10-01 21:36:00,